Regional Weather Roundup
Issued by NWS Northern Indiana

Home | Current Version | Previous Version | Text Only | Print | Product List | Glossary On
Versions: 1 2 3 4 5 6 7 8 9 10 11 12 13 14 15 16 17 18 19 20 21 22 23 24 25 26 27 28 29 30 31 32 33 34 35 36 37 38 39 40 41 42 43 44 45 46 47 48 49 50
000
ASUS43 KIWX 261500
RWRIWX

KIWX WEATHER ROUNDUP
NATIONAL WEATHER SERVICE NORTHERN INDIANA
1000 AM EST MON JAN 26 2015

NOTE: "FAIR" INDICATES FEW OR NO CLOUDS BELOW 12,000 FEET WITH NO
SIGNIFICANT WEATHER AND/OR OBSTRUCTIONS TO VISIBILITY.

* THESE STATIONS ARE NOT UNDER NWS QUALITY CONTROL. THEY ALSO MAY NOT
  REPORT WEATHER SUCH AS PRECIPITATION OR FOG.

INZ001>027-261600-
NORTHERN INDIANA

CITY           SKY/WX    TMP DP  RH WIND       PRES   REMARKS
GARY*          MOSUNNY   19   9  63 S8        29.98S WCI   9
SOUTH BEND     MOSUNNY   15  10  80 E3        29.95F
ELKHART*       SUNNY     14   7  73 E5        29.95F WCI   6
GOSHEN         MOSUNNY   14   9  80 E8        29.94F WCI   3
ANGOLA*        SUNNY     10   7  85 NE5       29.92F WCI   2
FORT WAYNE     PTSUNNY   14   7  73 N6        29.95S WCI   5

$$
INZ028>050-261600-
CENTRAL INDIANA

CITY           SKY/WX    TMP DP  RH WIND       PRES   REMARKS
LAFAYETTE      MOSUNNY   20  12  71 CALM      29.98R
KOKOMO*        MOSUNNY   14   9  79 NE5       29.95F WCI   6
MUNCIE*        SUNNY     16   9  74 N7        29.94R WCI   6
INDIANAPOLIS   PTSUNNY   21  14  74 CALM      29.94S

$$
MIZ043>046-050>051-056>058-064>065-071>073-077>080-261600-
SOUTHWEST LOWER MICHIGAN

CITY           SKY/WX    TMP DP  RH WIND       PRES   REMARKS
BATTLE CREEK   MOSUNNY   15   8  73 NE8       29.94F WCI   4
BENTON HARBOR  MOSUNNY   14  11  87 E5        29.96S WCI   6
COLDWATER*     MOSUNNY   13  10  86 E6        29.93F WCI   4
HILLSDALE*     SUNNY     13   8  82 NE5       29.90F WCI   5
HOLLAND        MOSUNNY   13   8  81 E5        29.98S WCI   5
GRAND RAPIDS   PTSUNNY   12   8  84 E8        29.96S WCI   0
KALAMAZOO      FAIR      14   8  77 VRB5      29.95F WCI   6
STURGIS*       MOSUNNY   12  10  92 NE5       29.93S WCI   4
THREE RIVERS*  FAIR      13  10  85 E5        29.95F WCI   6

$$
OHZ001>008-015>018-024>025-261600-
NORTHWEST OHIO

CITY           SKY/WX    TMP DP  RH WIND       PRES   REMARKS
DEFIANCE       SUNNY     14   6  70 N7        29.96R WCI   4
FINDLAY        LGT SNOW  15   8  73 N10       29.91R WCI   2
TOLEDO EXPRESS CLOUDY    13   6  74 N7        29.94S WCI   3
TOLEDO METCALF CLOUDY    15   6  67 N8        29.95R WCI   4
LIMA           LGT SNOW  14   7  73 N12       29.91R WCI   0

$$
AND FOR LAKE MICHIGAN COASTAL AND OPEN LAKE BUOY OBSERVATIONS

STATION/POSITION TEMP    WIND        PRES    VSBY  WAVE
                 AIR SEA DIR/SP/G                  HT/PER
                 (F)     (DEG/KT/KT) (MB)    (MI)  (FT/S)
CALUMET HARBOR    19     190/  7/ 10   N/A
MICHIGAN CITY     15     100/  4/  6   N/A
SAINT JOSEPH      14      70/  2/  5 1015.6S

$$
&&



USA.gov is the U.S. government's official web portal to all federal, state and local government web resources and services.